START_TIME,STEP,MOV.,M15,t_acc.,M20,t_acc.
1979-08-03 21:00:42.620 ,0,0,0.,24.0,0.,24.0
1979-08-03 21:01:06.620 ,0,1,0.,24.0,0.,24.0
1979-08-03 21:01:30.620 ,0,0,0.,24.0,0.,24.0
1979-08-03 21:01:54.620 ,1,1,0.,24.0,0.,24.0
1979-08-03 21:02:18.620 ,1,0,0.,24.0,0.,24.0
1979-08-03 21:02:42.620 ,2,1,0.,24.0,0.,24.0
1979-08-03 21:03:06.620 ,2,0,0.,24.0,0.,24.0
1979-08-03 21:03:30.620 ,3,1,0.,24.0,0.,24.0
1979-08-03 21:03:54.620 ,3,0,0.,24.0,0.,24.0
1979-08-03 21:04:18.610 ,4,1,0.,24.0,0.,24.0
1979-08-03 21:04:42.610 ,4,0,0.,24.0,0.,24.0
1979-08-03 21:05:06.610 ,5,1,0.,24.0,0.,24.0
1979-08-03 21:05:30.610 ,5,0,0.,24.0,0.,24.0
1979-08-03 21:05:54.610 ,6,1,0.,24.0,0.,24.0
1979-08-03 21:06:18.610 ,6,0,0.,24.0,0.,24.0
1979-08-03 21:06:42.610 ,7,0,0.,24.0,0.,24.0
1979-08-03 21:07:06.610 ,7,0,0.,24.0,0.,24.0
1979-08-03 21:07:30.610 ,3,1,0.,24.0,0.,24.0
1979-08-03 21:07:54.610 ,0,1,0.,24.0,0.,24.0
1979-08-03 21:08:18.610 ,4,1,0.,24.0,0.,24.0
1979-08-03 21:08:42.610 ,7,1,0.,24.0,0.,24.0
1979-08-03 21:09:06.610 ,3,1,0.,24.0,0.,24.0
1979-08-03 21:09:30.610 ,0,1,0.,24.0,0.,24.0
1979-08-03 21:09:54.610 ,4,1,0.,24.0,0.,24.0
1979-08-03 21:10:18.610 ,7,1,0.,24.0,0.,24.0
1979-08-03 21:10:42.610 ,3,1,0.,24.0,0.,24.0
1979-08-03 21:11:06.610 ,0,1,0.,24.0,0.,24.0
1979-08-03 21:11:30.610 ,4,1,0.,24.0,0.,24.0
1979-08-03 21:11:54.610 ,7,1,0.,24.0,0.,24.0
1979-08-03 21:12:18.610 ,3,1,0.,24.0,0.,24.0
1979-08-03 21:12:42.610 ,0,1,0.,24.0,0.,24.0
1979-08-03 21:13:06.610 ,4,1,0.,24.0,0.,24.0
1979-08-03 21:13:30.610 ,7,1,0.,24.0,0.,24.0
1979-08-03 21:13:54.610 ,3,1,0.,24.0,0.,24.0
1979-08-03 21:14:18.610 ,0,1,0.,24.0,0.,24.0
1979-08-03 21:14:42.610 ,4,1,0.,24.0,0.,24.0
1979-08-03 21:15:06.610 ,7,1,0.,24.0,0.,24.0
1979-08-03 21:15:30.610 ,3,1,0.,24.0,0.,24.0
1979-08-03 21:15:54.610 ,0,1,0.,24.0,0.,24.0
1979-08-03 21:16:18.610 ,4,1,0.,24.0,0.,24.0
1979-08-03 21:16:42.610 ,7,1,0.,24.0,0.,24.0
1979-08-03 21:17:06.610 ,3,1,0.,24.0,0.,24.0
1979-08-03 21:17:30.610 ,0,1,0.,24.0,0.,24.0
1979-08-03 21:17:54.610 ,0,0,0.,24.0,0.,24.0
1979-08-03 21:18:18.610 ,0,0,0.,24.0,0.,24.0
1979-08-03 21:18:42.610 ,5,1,0.,24.0,0.,24.0
1979-08-03 21:19:06.610 ,5,0,0.,24.0,0.,24.0
1979-08-03 21:19:30.610 ,4,1,0.,24.0,0.,24.0
1979-08-03 21:19:54.610 ,4,0,0.,24.0,0.,24.0
1979-08-03 21:20:18.610 ,3,1,0.,24.0,0.,24.0
1979-08-03 21:20:42.610 ,3,0,0.,24.0,0.,24.0
1979-08-03 21:21:06.610 ,2,1,0.,24.0,0.,24.0
1979-08-03 21:21:30.610 ,2,0,0.,24.0,0.,24.0
1979-08-03 21:21:54.610 ,1,1,0.,24.0,0.,24.0
1979-08-03 21:22:18.610 ,1,0,0.,24.0,0.,24.0
1979-08-03 21:22:42.610 ,0,1,0.,24.0,0.,24.0
1979-08-03 21:23:06.610 ,0,0,0.,24.0,0.,24.0
1979-08-03 21:23:30.610 ,0,1,0.,24.0,0.,24.0
1979-08-03 21:23:54.610 ,0,0,0.,24.0,0.,24.0
1979-08-03 21:24:18.610 ,1,1,0.,24.0,0.,24.0
1979-08-03 21:24:42.610 ,1,0,0.,24.0,0.,24.0
1979-08-03 21:25:06.610 ,2,1,0.,24.0,0.,24.0
1979-08-03 21:25:30.610 ,2,0,0.,24.0,0.,24.0
1979-08-03 21:25:54.610 ,3,1,0.,24.0,0.,24.0
1979-08-03 21:26:18.610 ,3,0,0.,24.0,0.,24.0
1979-08-03 21:26:42.610 ,4,1,0.,24.0,0.,24.0
1979-08-03 21:27:06.610 ,4,0,0.,24.0,0.,24.0
1979-08-03 21:27:30.610 ,5,1,0.,24.0,0.,24.0
1979-08-03 21:27:54.610 ,5,0,0.,24.0,0.,24.0
1979-08-03 21:28:18.610 ,6,1,0.,24.0,0.,24.0
1979-08-03 21:28:42.610 ,6,0,0.,24.0,0.,24.0
1979-08-03 21:29:06.610 ,7,1,0.,24.0,0.,24.0
1979-08-03 21:29:30.610 ,7,0,0.,24.0,0.,24.0
1979-08-03 21:29:54.610 ,7,1,0.,24.0,0.,24.0
1979-08-03 21:30:18.610 ,7,0,0.,24.0,0.,24.0
1979-08-03 21:30:42.610 ,6,1,0.,24.0,0.,24.0
1979-08-03 21:31:06.610 ,6,0,0.,24.0,0.,24.0
1979-08-03 21:31:30.610 ,5,1,0.,24.0,0.,24.0
1979-08-03 21:31:54.610 ,5,0,0.,24.0,0.,24.0
1979-08-03 21:32:18.610 ,4,1,0.,24.0,0.,24.0
1979-08-03 21:32:42.610 ,4,0,0.,24.0,0.,24.0
1979-08-03 21:33:06.610 ,3,1,1.,24.0,0.,24.0
1979-08-03 21:33:30.610 ,3,0,0.,24.0,0.,24.0
1979-08-03 21:33:54.610 ,2,1,0.,24.0,0.,24.0
1979-08-03 21:34:18.610 ,2,0,0.,24.0,0.,24.0
1979-08-03 21:34:42.610 ,1,1,0.,24.0,0.,24.0
1979-08-03 21:35:06.610 ,1,0,0.,24.0,0.,24.0
1979-08-03 21:35:30.610 ,0,1,0.,24.0,0.,24.0
1979-08-03 21:35:54.610 ,0,0,0.,24.0,0.,24.0
1979-08-03 21:36:18.610 ,0,1,0.,24.0,0.,24.0
1979-08-03 21:36:42.610 ,0,0,0.,24.0,0.,24.0
1979-08-03 21:37:06.610 ,1,1,0.,24.0,0.,24.0
1979-08-03 21:37:30.610 ,1,0,0.,24.0,0.,24.0
1979-08-03 21:37:54.610 ,2,1,0.,24.0,0.,24.0
1979-08-03 21:38:18.610 ,2,0,0.,24.0,0.,24.0
1979-08-03 21:38:42.610 ,3,1,0.,24.0,0.,24.0
1979-08-03 21:39:06.610 ,3,0,0.,24.0,0.,24.0
1979-08-03 21:39:30.610 ,4,1,0.,24.0,0.,24.0
1979-08-03 21:39:54.610 ,4,0,0.,24.0,0.,24.0
1979-08-03 21:40:18.610 ,5,1,0.,24.0,0.,24.0
1979-08-03 21:40:42.610 ,5,0,0.,24.0,0.,24.0
1979-08-03 21:41:06.610 ,6,1,0.,24.0,0.,24.0
1979-08-03 21:41:30.610 ,6,0,0.,24.0,0.,24.0
1979-08-03 21:41:54.610 ,7,1,0.,24.0,0.,24.0
1979-08-03 21:42:18.610 ,7,0,0.,24.0,0.,24.0
1979-08-03 21:42:42.610 ,7,1,0.,24.0,0.,24.0
1979-08-03 21:43:06.610 ,7,0,0.,24.0,0.,24.0
1979-08-03 21:43:30.610 ,6,1,0.,24.0,0.,24.0
1979-08-03 21:43:54.610 ,6,0,0.,24.0,0.,24.0
1979-08-03 21:44:18.610 ,5,1,0.,24.0,0.,24.0
1979-08-03 21:44:42.610 ,5,0,0.,24.0,0.,24.0
1979-08-03 21:45:06.610 ,4,1,0.,24.0,0.,24.0
1979-08-03 21:45:30.610 ,4,0,0.,24.0,0.,24.0
1979-08-03 21:45:54.610 ,3,1,0.,24.0,0.,24.0
1979-08-03 21:46:18.610 ,3,0,0.,24.0,0.,24.0
1979-08-03 21:46:42.610 ,2,1,0.,24.0,0.,24.0
1979-08-03 21:47:06.610 ,2,0,0.,24.0,0.,24.0
1979-08-03 21:47:30.610 ,1,1,0.,24.0,0.,24.0
1979-08-03 21:47:54.610 ,1,0,0.,24.0,0.,24.0
1979-08-03 21:48:18.610 ,0,1,0.,24.0,0.,24.0
1979-08-03 21:48:42.610 ,0,0,0.,24.0,0.,24.0
1979-08-03 21:49:06.610 ,0,1,0.,24.0,0.,24.0
1979-08-03 21:49:30.610 ,0,0,0.,24.0,0.,24.0
1979-08-03 21:49:54.610 ,1,1,0.,24.0,0.,24.0
1979-08-03 21:50:18.610 ,1,0,0.,24.0,0.,24.0
1979-08-03 21:50:42.610 ,2,1,0.,24.0,0.,24.0
1979-08-03 21:51:06.610 ,2,0,0.,24.0,0.,24.0
1979-08-03 21:51:30.610 ,3,1,0.,24.0,0.,24.0
1979-08-03 21:51:54.610 ,3,0,0.,24.0,0.,24.0
1979-08-03 21:52:18.610 ,4,1,0.,24.0,0.,24.0
1979-08-03 21:52:42.610 ,4,0,0.,24.0,0.,24.0
1979-08-03 21:53:06.610 ,5,1,0.,24.0,0.,24.0
1979-08-03 21:53:30.610 ,5,0,0.,24.0,0.,24.0
1979-08-03 21:53:54.610 ,6,1,0.,24.0,0.,24.0
1979-08-03 21:54:18.610 ,6,0,0.,24.0,0.,24.0
1979-08-03 21:54:42.610 ,7,0,0.,24.0,0.,24.0
1979-08-03 21:55:06.610 ,7,0,0.,24.0,0.,24.0
1979-08-03 21:55:30.610 ,3,1,0.,24.0,0.,24.0
1979-08-03 21:55:54.610 ,0,1,0.,24.0,0.,24.0
1979-08-03 21:56:18.610 ,4,1,0.,24.0,0.,24.0
1979-08-03 21:56:42.610 ,7,1,0.,24.0,0.,24.0
1979-08-03 21:57:06.610 ,3,1,0.,24.0,0.,24.0
1979-08-03 21:57:30.610 ,0,1,0.,24.0,0.,24.0
1979-08-03 21:57:54.610 ,4,1,0.,24.0,0.,24.0
1979-08-03 21:58:18.610 ,7,1,0.,24.0,0.,24.0
1979-08-03 21:58:42.610 ,3,1,0.,24.0,0.,24.0
1979-08-03 21:59:06.610 ,0,1,0.,24.0,0.,24.0
1979-08-03 21:59:30.610 ,4,1,0.,24.0,0.,24.0
1979-08-03 21:59:54.610 ,7,1,0.,24.0,0.,24.0
1979-08-03 22:00:18.610 ,3,1,0.,24.0,0.,24.0
1979-08-03 22:00:42.610 ,0,1,0.,24.0,0.,24.0
1979-08-03 22:01:06.610 ,4,1,0.,24.0,0.,24.0
1979-08-03 22:01:30.610 ,7,1,0.,24.0,0.,24.0
1979-08-03 22:01:54.610 ,3,1,0.,24.0,0.,24.0
1979-08-03 22:02:18.610 ,0,1,0.,24.0,0.,24.0
1979-08-03 22:02:42.610 ,4,1,0.,24.0,0.,24.0
1979-08-03 22:03:06.610 ,7,1,0.,24.0,0.,24.0
1979-08-03 22:03:30.610 ,3,1,0.,24.0,0.,24.0
1979-08-03 22:03:54.610 ,0,1,0.,24.0,0.,24.0
1979-08-03 22:04:18.610 ,4,1,0.,24.0,0.,24.0
1979-08-03 22:04:42.610 ,7,1,0.,24.0,0.,24.0
1979-08-03 22:05:06.610 ,3,1,1.,24.0,0.,24.0
1979-08-03 22:05:30.610 ,0,1,0.,24.0,0.,24.0
1979-08-03 22:05:54.610 ,0,0,0.,24.0,0.,24.0
1979-08-03 22:06:18.610 ,0,0,0.,24.0,0.,24.0
1979-08-03 22:06:42.610 ,5,1,0.,24.0,0.,24.0
1979-08-03 22:07:06.610 ,5,0,0.,24.0,0.,24.0
1979-08-03 22:07:30.610 ,4,1,0.,24.0,0.,24.0
1979-08-03 22:07:54.610 ,4,0,0.,24.0,0.,24.0
1979-08-03 22:08:18.610 ,3,1,0.,24.0,0.,24.0
1979-08-03 22:08:42.610 ,3,0,0.,24.0,0.,24.0
1979-08-03 22:09:06.610 ,2,1,0.,24.0,0.,24.0
1979-08-03 22:09:30.610 ,2,0,0.,24.0,0.,24.0
1979-08-03 22:09:54.610 ,1,1,0.,24.0,0.,24.0
1979-08-03 22:10:18.610 ,1,0,0.,24.0,0.,24.0
1979-08-03 22:10:42.610 ,0,1,0.,24.0,0.,24.0
1979-08-03 22:11:06.610 ,0,0,0.,24.0,0.,24.0
1979-08-03 22:11:30.610 ,0,1,0.,24.0,0.,24.0
1979-08-03 22:11:54.610 ,0,0,0.,24.0,0.,24.0
1979-08-03 22:12:18.610 ,1,1,0.,24.0,0.,24.0
1979-08-03 22:12:42.610 ,1,0,0.,24.0,0.,24.0
1979-08-03 22:13:06.610 ,2,1,0.,24.0,0.,24.0
1979-08-03 22:13:30.610 ,2,0,0.,24.0,0.,24.0
1979-08-03 22:13:54.610 ,3,1,0.,24.0,0.,24.0
1979-08-03 22:14:18.610 ,3,0,0.,24.0,0.,24.0
1979-08-03 22:14:42.610 ,4,1,0.,24.0,0.,24.0
1979-08-03 22:15:06.610 ,4,0,0.,24.0,0.,24.0
1979-08-03 22:15:30.610 ,5,1,0.,24.0,0.,24.0
1979-08-03 22:15:54.610 ,5,0,0.,24.0,0.,24.0
1979-08-03 22:16:18.610 ,6,1,0.,24.0,0.,24.0
1979-08-03 22:16:42.610 ,6,0,0.,24.0,0.,24.0
1979-08-03 22:17:06.610 ,7,1,0.,24.0,0.,24.0
1979-08-03 22:17:30.610 ,7,0,0.,24.0,0.,24.0
1979-08-03 22:17:54.610 ,7,1,0.,24.0,0.,24.0
1979-08-03 22:18:18.610 ,7,0,0.,24.0,0.,24.0
1979-08-03 22:18:42.610 ,6,1,0.,24.0,0.,24.0
1979-08-03 22:19:06.610 ,6,0,0.,24.0,0.,24.0
1979-08-03 22:19:30.610 ,5,1,0.,24.0,0.,24.0
1979-08-03 22:19:54.610 ,5,0,0.,24.0,0.,24.0
1979-08-03 22:20:18.610 ,4,1,0.,24.0,0.,24.0
1979-08-03 22:20:42.610 ,4,0,0.,24.0,0.,24.0
1979-08-03 22:21:06.610 ,3,1,0.,24.0,0.,24.0
1979-08-03 22:21:30.610 ,3,0,0.,24.0,0.,24.0
1979-08-03 22:21:54.610 ,2,1,0.,24.0,0.,24.0
1979-08-03 22:22:18.610 ,2,0,0.,24.0,0.,24.0
1979-08-03 22:22:42.610 ,1,1,0.,24.0,0.,24.0
1979-08-03 22:23:06.610 ,1,0,0.,24.0,0.,24.0
1979-08-03 22:23:30.610 ,0,1,0.,24.0,0.,24.0
1979-08-03 22:23:54.610 ,0,0,0.,24.0,0.,24.0
1979-08-03 22:24:18.610 ,0,1,0.,24.0,0.,24.0
1979-08-03 22:24:42.610 ,0,0,0.,24.0,0.,24.0
1979-08-03 22:25:06.610 ,1,1,0.,24.0,0.,24.0
1979-08-03 22:25:30.610 ,1,0,0.,24.0,0.,24.0
1979-08-03 22:25:54.610 ,2,1,0.,24.0,0.,24.0
1979-08-03 22:26:18.610 ,2,0,0.,24.0,0.,24.0
1979-08-03 22:26:42.610 ,3,1,0.,24.0,0.,24.0
1979-08-03 22:27:06.610 ,3,0,0.,24.0,0.,24.0
1979-08-03 22:27:30.610 ,4,1,0.,24.0,0.,24.0
1979-08-03 22:27:54.610 ,4,0,0.,24.0,0.,24.0
1979-08-03 22:28:18.610 ,5,1,0.,24.0,0.,24.0
1979-08-03 22:28:42.610 ,5,0,0.,24.0,0.,24.0
1979-08-03 22:29:06.610 ,6,1,0.,24.0,0.,24.0
1979-08-03 22:29:30.610 ,6,0,0.,24.0,0.,24.0
1979-08-03 22:29:54.610 ,7,1,0.,24.0,0.,24.0
1979-08-03 22:30:18.610 ,7,0,0.,24.0,0.,24.0
1979-08-03 22:30:42.610 ,7,1,0.,24.0,0.,24.0
1979-08-03 22:31:06.610 ,7,0,0.,24.0,0.,24.0
1979-08-03 22:31:30.610 ,6,1,0.,24.0,0.,24.0
1979-08-03 22:31:54.610 ,6,0,0.,24.0,0.,24.0
1979-08-03 22:32:18.610 ,5,1,0.,24.0,0.,24.0
1979-08-03 22:32:42.610 ,5,0,0.,24.0,0.,24.0
1979-08-03 22:33:06.610 ,4,1,0.,24.0,0.,24.0
1979-08-03 22:33:30.610 ,4,0,0.,24.0,0.,24.0
1979-08-03 22:33:54.610 ,3,1,0.,24.0,0.,24.0
1979-08-03 22:34:18.610 ,3,0,0.,24.0,0.,24.0
1979-08-03 22:34:42.610 ,2,1,0.,24.0,0.,24.0
1979-08-03 22:35:06.610 ,2,0,0.,24.0,0.,24.0
1979-08-03 22:35:30.610 ,1,1,0.,24.0,0.,24.0
1979-08-03 22:35:54.610 ,1,0,0.,24.0,0.,24.0
1979-08-03 22:36:18.610 ,0,1,0.,24.0,0.,24.0
1979-08-03 22:36:42.610 ,0,0,0.,24.0,0.,24.0
1979-08-03 22:37:06.610 ,0,1,0.,24.0,0.,24.0
1979-08-03 22:37:30.610 ,0,0,0.,24.0,0.,24.0
1979-08-03 22:37:54.610 ,1,1,0.,24.0,0.,24.0
1979-08-03 22:38:18.610 ,1,0,0.,24.0,0.,24.0
1979-08-03 22:38:42.610 ,2,1,0.,24.0,0.,24.0
1979-08-03 22:39:06.610 ,2,0,0.,24.0,0.,24.0
1979-08-03 22:39:30.610 ,3,1,0.,24.0,0.,24.0
1979-08-03 22:39:54.610 ,3,0,0.,24.0,0.,24.0
1979-08-03 22:40:18.610 ,4,1,0.,24.0,0.,24.0
1979-08-03 22:40:42.610 ,4,0,0.,24.0,0.,24.0
1979-08-03 22:41:06.610 ,5,1,0.,24.0,0.,24.0
1979-08-03 22:41:30.610 ,5,0,0.,24.0,0.,24.0
1979-08-03 22:41:54.610 ,6,1,0.,24.0,0.,24.0
1979-08-03 22:42:18.610 ,6,0,0.,24.0,0.,24.0
1979-08-03 22:42:42.610 ,7,0,0.,24.0,0.,24.0
1979-08-03 22:43:06.610 ,7,0,0.,24.0,0.,24.0
1979-08-03 22:43:30.610 ,3,1,0.,24.0,0.,24.0
1979-08-03 22:43:54.610 ,0,1,0.,24.0,0.,24.0
1979-08-03 22:44:18.610 ,4,1,0.,24.0,0.,24.0
1979-08-03 22:44:42.610 ,7,1,0.,24.0,0.,24.0
1979-08-03 22:45:06.610 ,3,1,0.,24.0,0.,24.0
1979-08-03 22:45:30.610 ,0,1,0.,24.0,0.,24.0
1979-08-03 22:45:54.610 ,4,1,0.,24.0,0.,24.0
1979-08-03 22:46:18.610 ,7,1,0.,24.0,0.,24.0
1979-08-03 22:46:42.610 ,3,1,0.,24.0,0.,24.0
1979-08-03 22:47:06.610 ,0,1,0.,24.0,0.,24.0
1979-08-03 22:47:30.610 ,4,1,0.,24.0,0.,24.0
1979-08-03 22:47:54.610 ,7,1,0.,24.0,0.,24.0
1979-08-03 22:48:18.610 ,3,1,0.,24.0,0.,24.0
1979-08-03 22:48:42.610 ,0,1,0.,24.0,0.,24.0
1979-08-03 22:49:06.610 ,4,1,0.,24.0,0.,24.0
1979-08-03 22:49:30.610 ,7,1,0.,24.0,0.,24.0
1979-08-03 22:49:54.610 ,3,1,0.,24.0,0.,24.0
1979-08-03 22:50:18.610 ,0,1,0.,24.0,0.,24.0
1979-08-03 22:50:42.610 ,4,1,0.,24.0,0.,24.0
1979-08-03 22:51:06.610 ,7,1,0.,24.0,0.,24.0
1979-08-03 22:51:30.610 ,3,1,0.,24.0,0.,24.0
1979-08-03 22:51:54.610 ,0,1,0.,24.0,0.,24.0
1979-08-03 22:52:18.610 ,4,1,0.,24.0,0.,24.0
1979-08-03 22:52:42.610 ,7,1,0.,24.0,0.,24.0
1979-08-03 22:53:06.610 ,3,1,0.,24.0,0.,24.0
1979-08-03 22:53:30.610 ,0,1,0.,24.0,0.,24.0
1979-08-03 22:53:54.610 ,0,0,0.,24.0,0.,24.0
1979-08-03 22:54:18.610 ,0,0,0.,24.0,0.,24.0
1979-08-03 22:54:42.610 ,5,1,0.,24.0,0.,24.0
1979-08-03 22:55:06.610 ,5,0,0.,24.0,0.,24.0
1979-08-03 22:55:30.610 ,4,1,0.,24.0,0.,24.0
1979-08-03 22:55:54.610 ,4,0,0.,24.0,0.,24.0
1979-08-03 22:56:18.610 ,3,1,0.,24.0,0.,24.0
1979-08-03 22:56:42.610 ,3,0,0.,24.0,0.,24.0
1979-08-03 22:57:06.610 ,2,1,0.,24.0,0.,24.0
1979-08-03 22:57:30.610 ,2,0,0.,24.0,0.,24.0
1979-08-03 22:57:54.610 ,1,1,0.,24.0,0.,24.0
1979-08-03 22:58:18.610 ,1,0,0.,24.0,0.,24.0
1979-08-03 22:58:42.610 ,0,1,0.,24.0,0.,24.0
1979-08-03 22:59:06.610 ,0,0,0.,24.0,0.,24.0
1979-08-03 22:59:30.610 ,0,1,0.,24.0,0.,24.0
1979-08-03 22:59:54.610 ,0,0,0.,24.0,0.,24.0
1979-08-03 23:00:18.610 ,1,1,0.,24.0,0.,24.0
1979-08-03 23:00:42.610 ,1,0,0.,24.0,0.,24.0
1979-08-03 23:01:06.610 ,2,1,0.,24.0,0.,24.0
1979-08-03 23:01:30.610 ,2,0,0.,24.0,0.,24.0
1979-08-03 23:01:54.610 ,3,1,0.,24.0,0.,24.0
1979-08-03 23:02:18.610 ,3,0,0.,24.0,0.,24.0
1979-08-03 23:02:42.610 ,4,1,0.,24.0,0.,24.0
1979-08-03 23:03:06.610 ,4,0,0.,24.0,0.,24.0
1979-08-03 23:03:30.610 ,5,1,0.,24.0,0.,24.0
1979-08-03 23:03:54.610 ,5,0,0.,24.0,0.,24.0
1979-08-03 23:04:18.610 ,6,1,0.,24.0,0.,24.0
1979-08-03 23:04:42.610 ,6,0,0.,24.0,0.,24.0
1979-08-03 23:05:06.610 ,7,1,0.,24.0,0.,24.0
1979-08-03 23:05:30.610 ,7,0,0.,24.0,0.,24.0
1979-08-03 23:05:54.610 ,7,1,0.,24.0,0.,24.0
1979-08-03 23:06:18.610 ,7,0,0.,24.0,0.,24.0
1979-08-03 23:06:42.610 ,6,1,0.,24.0,0.,24.0
1979-08-03 23:07:06.610 ,6,0,0.,24.0,0.,24.0
1979-08-03 23:07:30.610 ,5,1,0.,24.0,0.,24.0
1979-08-03 23:07:54.610 ,5,0,0.,24.0,0.,24.0
1979-08-03 23:08:18.610 ,4,1,0.,24.0,0.,24.0
1979-08-03 23:08:42.610 ,4,0,0.,24.0,0.,24.0
1979-08-03 23:09:06.610 ,3,1,0.,24.0,0.,24.0
1979-08-03 23:09:30.610 ,3,0,0.,24.0,0.,24.0
1979-08-03 23:09:54.610 ,2,1,0.,24.0,0.,24.0
1979-08-03 23:10:18.610 ,2,0,0.,24.0,0.,24.0
1979-08-03 23:10:42.610 ,1,1,0.,24.0,0.,24.0
1979-08-03 23:11:06.610 ,1,0,0.,24.0,0.,24.0
1979-08-03 23:11:30.610 ,0,1,0.,24.0,0.,24.0
1979-08-03 23:11:54.610 ,0,0,0.,24.0,0.,24.0
1979-08-03 23:12:18.610 ,0,1,0.,24.0,0.,24.0
1979-08-03 23:12:42.610 ,0,0,0.,24.0,0.,24.0
1979-08-03 23:13:06.610 ,1,1,0.,24.0,0.,24.0
1979-08-03 23:13:30.610 ,1,0,0.,24.0,0.,24.0
1979-08-03 23:13:54.610 ,2,1,0.,24.0,0.,24.0
1979-08-03 23:14:18.610 ,2,0,0.,24.0,0.,24.0
1979-08-03 23:14:42.610 ,3,1,0.,24.0,0.,24.0
1979-08-03 23:15:06.610 ,3,0,0.,24.0,0.,24.0
1979-08-03 23:15:30.610 ,4,1,0.,24.0,0.,24.0
1979-08-03 23:15:54.610 ,4,0,0.,24.0,0.,24.0
1979-08-03 23:16:18.610 ,5,1,0.,24.0,0.,24.0
1979-08-03 23:16:42.610 ,5,0,0.,24.0,0.,24.0
1979-08-03 23:17:06.610 ,6,1,0.,24.0,0.,24.0
1979-08-03 23:17:30.610 ,6,0,0.,24.0,0.,24.0
1979-08-03 23:17:54.610 ,7,1,0.,24.0,0.,24.0
1979-08-03 23:18:18.610 ,7,0,0.,24.0,0.,24.0
1979-08-03 23:18:42.610 ,7,1,0.,24.0,0.,24.0
1979-08-03 23:19:06.610 ,7,0,0.,24.0,0.,24.0
1979-08-03 23:19:30.610 ,6,1,0.,24.0,0.,24.0
1979-08-03 23:19:54.610 ,6,0,0.,24.0,0.,24.0
1979-08-03 23:20:18.610 ,5,1,0.,24.0,0.,24.0
1979-08-03 23:20:42.610 ,5,0,0.,24.0,0.,24.0
1979-08-03 23:21:06.610 ,4,1,0.,24.0,0.,24.0
1979-08-03 23:21:30.610 ,4,0,0.,24.0,0.,24.0
1979-08-03 23:21:54.610 ,3,1,0.,24.0,0.,24.0
1979-08-03 23:22:18.610 ,3,0,0.,24.0,0.,24.0
1979-08-03 23:22:42.610 ,2,1,0.,24.0,0.,24.0
1979-08-03 23:23:06.610 ,2,0,0.,24.0,0.,24.0
1979-08-03 23:23:30.610 ,1,1,0.,24.0,0.,24.0
1979-08-03 23:23:54.610 ,1,0,0.,24.0,0.,24.0
1979-08-03 23:24:18.610 ,0,1,0.,24.0,0.,24.0
1979-08-03 23:24:42.610 ,0,0,0.,24.0,0.,24.0
1979-08-03 23:25:06.610 ,0,1,0.,24.0,0.,24.0
1979-08-03 23:25:30.610 ,0,0,0.,24.0,0.,24.0
1979-08-03 23:25:54.610 ,1,1,0.,24.0,0.,24.0
1979-08-03 23:26:18.610 ,1,0,0.,24.0,0.,24.0
1979-08-03 23:26:42.610 ,2,1,0.,24.0,0.,24.0
1979-08-03 23:27:06.610 ,2,0,0.,24.0,0.,24.0
1979-08-03 23:27:30.610 ,3,1,0.,24.0,0.,24.0
1979-08-03 23:27:54.610 ,0,0,,0,,0
1979-08-03 23:28:45.010 ,0,0,0.,24.0,0.,24.0
1979-08-03 23:29:06.610 ,5,1,0.,24.0,0.,24.0
1979-08-03 23:29:30.610 ,5,0,0.,24.0,0.,24.0
1979-08-03 23:29:54.610 ,6,1,0.,24.0,0.,24.0
1979-08-03 23:30:18.610 ,6,0,0.,24.0,0.,24.0
1979-08-03 23:30:42.610 ,7,0,0.,24.0,0.,24.0
1979-08-03 23:31:06.610 ,7,0,0.,24.0,0.,24.0
1979-08-03 23:31:30.610 ,3,1,0.,24.0,0.,24.0
1979-08-03 23:31:54.610 ,0,1,0.,24.0,0.,24.0
1979-08-03 23:32:18.610 ,4,1,0.,24.0,0.,24.0
1979-08-03 23:32:42.610 ,7,1,0.,24.0,0.,24.0
1979-08-03 23:33:06.610 ,3,1,0.,24.0,0.,24.0
1979-08-03 23:33:30.610 ,0,1,0.,24.0,0.,24.0
1979-08-03 23:33:54.610 ,4,1,0.,24.0,0.,24.0
1979-08-03 23:34:18.610 ,7,1,0.,24.0,0.,24.0
1979-08-03 23:34:42.610 ,3,1,0.,24.0,0.,24.0
1979-08-03 23:35:06.610 ,0,1,0.,24.0,0.,24.0
1979-08-03 23:35:30.610 ,4,1,0.,24.0,0.,24.0
1979-08-03 23:35:54.610 ,7,1,0.,24.0,0.,24.0
1979-08-03 23:36:18.610 ,3,1,0.,24.0,0.,24.0
1979-08-03 23:36:42.610 ,0,1,0.,24.0,0.,24.0
1979-08-03 23:37:06.610 ,4,1,0.,24.0,0.,24.0
1979-08-03 23:37:30.610 ,7,1,0.,24.0,0.,24.0
1979-08-03 23:37:54.610 ,3,1,0.,24.0,0.,24.0
1979-08-03 23:38:18.610 ,0,1,0.,24.0,0.,24.0
1979-08-03 23:38:42.610 ,4,1,0.,24.0,0.,24.0
1979-08-03 23:39:06.610 ,7,1,0.,24.0,0.,24.0
1979-08-03 23:39:30.610 ,3,1,0.,24.0,0.,24.0
1979-08-03 23:39:54.610 ,0,1,0.,24.0,0.,24.0
1979-08-03 23:40:18.610 ,4,1,0.,24.0,0.,24.0
1979-08-03 23:40:42.610 ,7,1,0.,24.0,0.,24.0
1979-08-03 23:41:06.610 ,3,1,0.,24.0,0.,24.0
1979-08-03 23:41:30.610 ,0,1,0.,24.0,0.,24.0
1979-08-03 23:41:54.610 ,0,0,0.,24.0,0.,24.0
1979-08-03 23:42:18.610 ,0,0,0.,24.0,0.,24.0
1979-08-03 23:42:42.610 ,5,1,0.,24.0,0.,24.0
1979-08-03 23:43:06.610 ,5,0,0.,24.0,0.,24.0
1979-08-03 23:43:30.610 ,4,1,0.,24.0,0.,24.0
1979-08-03 23:43:54.610 ,4,0,0.,24.0,0.,24.0
1979-08-03 23:44:18.610 ,3,1,0.,24.0,0.,24.0
1979-08-03 23:44:42.610 ,3,0,0.,24.0,0.,24.0
1979-08-03 23:45:06.610 ,2,1,0.,24.0,0.,24.0
1979-08-03 23:45:30.610 ,2,0,0.,24.0,0.,24.0
1979-08-03 23:45:54.610 ,1,1,0.,24.0,0.,24.0
1979-08-03 23:46:18.610 ,1,0,0.,24.0,0.,24.0
1979-08-03 23:46:42.610 ,0,1,0.,24.0,0.,24.0
1979-08-03 23:47:06.610 ,0,0,0.,24.0,0.,24.0
1979-08-03 23:47:30.610 ,0,1,0.,24.0,0.,24.0
1979-08-03 23:47:54.610 ,0,0,0.,24.0,0.,24.0
1979-08-03 23:48:18.610 ,1,1,0.,24.0,0.,24.0
1979-08-03 23:48:42.610 ,1,0,0.,24.0,0.,24.0
1979-08-03 23:49:06.610 ,2,1,0.,24.0,0.,24.0
1979-08-03 23:49:30.610 ,2,0,0.,24.0,0.,24.0
1979-08-03 23:49:54.610 ,3,1,0.,24.0,0.,24.0
1979-08-03 23:50:18.610 ,3,0,0.,24.0,0.,24.0
1979-08-03 23:50:42.610 ,4,1,0.,24.0,0.,24.0
1979-08-03 23:51:06.610 ,4,0,0.,24.0,0.,24.0
1979-08-03 23:51:30.610 ,5,1,0.,24.0,0.,24.0
1979-08-03 23:51:54.610 ,5,0,0.,24.0,0.,24.0
1979-08-03 23:52:18.610 ,6,1,0.,24.0,0.,24.0
1979-08-03 23:52:42.610 ,6,0,0.,24.0,0.,24.0
1979-08-03 23:53:06.610 ,7,1,0.,24.0,0.,24.0
1979-08-03 23:53:30.610 ,7,0,0.,24.0,0.,24.0
1979-08-03 23:53:54.610 ,7,1,0.,24.0,0.,24.0
1979-08-03 23:54:18.610 ,7,0,0.,24.0,0.,24.0
1979-08-03 23:54:42.610 ,6,1,0.,24.0,0.,24.0
1979-08-03 23:55:06.610 ,6,0,0.,24.0,0.,24.0
1979-08-03 23:55:30.610 ,5,1,0.,24.0,0.,24.0
1979-08-03 23:55:54.610 ,5,0,0.,24.0,0.,24.0
1979-08-03 23:56:18.610 ,4,1,0.,24.0,0.,24.0
1979-08-03 23:56:42.610 ,4,0,0.,24.0,0.,24.0
1979-08-03 23:57:06.610 ,3,1,0.,24.0,0.,24.0
1979-08-03 23:57:30.610 ,3,0,0.,24.0,0.,24.0
1979-08-03 23:57:54.610 ,2,1,0.,24.0,0.,24.0
1979-08-03 23:58:18.610 ,2,0,0.,24.0,0.,24.0
1979-08-03 23:58:42.610 ,1,1,0.,24.0,0.,24.0
1979-08-03 23:59:30.600 ,0,1,0.,24.0,0.,24.0
1979-08-03 23:59:54.600 ,0,0,0.,24.0,0.,24.0
1979-08-04 00:00:18.610 ,0,1,0.,24.0,0.,24.0
1979-08-03 23:01:30.610 ,2,0,0.,24.0,0.,24.0
1979-08-03 23:01:54.610 ,3,1,0.,24.0,0.,24.0
1979-08-03 23:02:18.610 ,3,0,0.,24.0,0.,24.0
1979-08-03 23:02:42.610 ,4,1,0.,24.0,0.,24.0
1979-08-03 23:03:06.610 ,4,0,0.,24.0,0.,24.0
1979-08-03 23:03:30.610 ,5,1,0.,24.0,0.,24.0
1979-08-03 23:03:54.610 ,5,0,0.,24.0,0.,24.0
1979-08-03 23:04:18.610 ,6,1,0.,24.0,0.,24.0
1979-08-03 23:04:42.610 ,6,0,0.,24.0,0.,24.0
1979-08-03 23:05:06.610 ,7,1,0.,24.0,0.,24.0
1979-08-03 23:05:30.610 ,7,0,0.,24.0,0.,24.0
1979-08-03 23:05:54.610 ,7,1,0.,24.0,0.,24.0
1979-08-03 23:06:18.610 ,7,0,0.,24.0,0.,24.0
1979-08-03 23:06:42.610 ,6,1,0.,24.0,0.,24.0
1979-08-03 23:07:06.610 ,6,0,0.,24.0,0.,24.0
1979-08-03 23:07:30.610 ,5,1,0.,24.0,0.,24.0
1979-08-03 23:07:54.610 ,5,0,0.,24.0,0.,24.0
1979-08-03 23:08:18.610 ,4,1,0.,24.0,0.,24.0
1979-08-03 23:08:42.610 ,4,0,0.,24.0,0.,24.0
1979-08-03 23:09:06.610 ,3,1,0.,24.0,0.,24.0
1979-08-03 23:09:30.610 ,3,0,0.,24.0,0.,24.0
1979-08-03 23:09:54.610 ,2,1,0.,24.0,0.,24.0
1979-08-03 23:10:18.610 ,2,0,0.,24.0,0.,24.0
1979-08-03 23:10:42.610 ,1,1,0.,24.0,0.,24.0
1979-08-03 23:11:06.610 ,1,0,0.,24.0,0.,24.0
1979-08-03 23:11:30.610 ,0,1,0.,24.0,0.,24.0
1979-08-03 23:11:54.610 ,0,0,0.,24.0,0.,24.0
1979-08-03 23:12:18.610 ,0,1,0.,24.0,0.,24.0
1979-08-03 23:12:42.610 ,0,0,0.,24.0,0.,24.0
1979-08-03 23:13:06.610 ,1,1,0.,24.0,0.,24.0
1979-08-03 23:13:30.610 ,1,0,0.,24.0,0.,24.0
1979-08-03 23:13:54.610 ,2,1,0.,24.0,0.,24.0
1979-08-03 23:14:18.610 ,2,0,0.,24.0,0.,24.0
1979-08-03 23:14:42.610 ,3,1,0.,24.0,0.,24.0
1979-08-03 23:15:06.610 ,3,0,0.,24.0,0.,24.0
1979-08-03 23:15:30.610 ,4,1,0.,24.0,0.,24.0
1979-08-03 23:15:54.610 ,4,0,0.,24.0,0.,24.0
1979-08-03 23:16:18.610 ,5,1,0.,24.0,0.,24.0
1979-08-03 23:16:42.610 ,5,0,0.,24.0,0.,24.0
1979-08-03 23:17:06.610 ,6,1,0.,24.0,0.,24.0
1979-08-03 23:17:30.610 ,6,0,0.,24.0,0.,24.0
1979-08-03 23:17:54.610 ,7,1,0.,24.0,0.,24.0
1979-08-03 23:18:18.610 ,7,0,0.,24.0,0.,24.0
1979-08-03 23:18:42.610 ,7,1,0.,24.0,0.,24.0
1979-08-03 23:19:06.610 ,7,0,0.,24.0,0.,24.0
1979-08-03 23:19:30.610 ,6,1,0.,24.0,0.,24.0
1979-08-03 23:19:54.610 ,6,0,0.,24.0,0.,24.0
1979-08-03 23:20:18.610 ,5,1,0.,24.0,0.,24.0
1979-08-03 23:20:42.610 ,5,0,0.,24.0,0.,24.0
1979-08-03 23:21:06.610 ,4,1,0.,24.0,0.,24.0
1979-08-03 23:21:30.610 ,4,0,0.,24.0,0.,24.0
1979-08-03 23:21:54.610 ,3,1,0.,24.0,0.,24.0
1979-08-03 23:22:18.610 ,3,0,0.,24.0,0.,24.0
1979-08-03 23:22:42.610 ,2,1,0.,24.0,0.,24.0
1979-08-03 23:23:06.610 ,2,0,0.,24.0,0.,24.0
1979-08-03 23:23:30.610 ,1,1,0.,24.0,0.,24.0
1979-08-03 23:23:54.610 ,1,0,0.,24.0,0.,24.0
1979-08-03 23:24:18.610 ,0,1,0.,24.0,0.,24.0
1979-08-03 23:24:42.610 ,0,0,0.,24.0,0.,24.0
1979-08-03 23:25:06.610 ,0,1,0.,24.0,0.,24.0
1979-08-03 23:25:30.610 ,0,0,0.,24.0,0.,24.0
1979-08-03 23:25:54.610 ,1,1,0.,24.0,0.,24.0
1979-08-03 23:26:18.610 ,1,0,0.,24.0,0.,24.0
1979-08-03 23:26:42.610 ,2,1,0.,24.0,0.,24.0
1979-08-03 23:27:06.610 ,2,0,0.,24.0,0.,24.0
1979-08-03 23:27:30.610 ,3,1,0.,24.0,0.,24.0
1979-08-03 23:27:54.610 ,0,0,,0,,0
1979-08-03 23:28:45.010 ,0,0,0.,24.0,0.,24.0
1979-08-03 23:29:06.610 ,5,1,0.,24.0,0.,24.0
1979-08-03 23:29:30.610 ,5,0,0.,24.0,0.,24.0
1979-08-03 23:29:54.610 ,6,1,0.,24.0,0.,24.0
1979-08-03 23:30:18.610 ,6,0,0.,24.0,0.,24.0
1979-08-03 23:30:42.610 ,7,0,0.,24.0,0.,24.0